Location: Newark
(0.5300°S, 127.4800°E)
Time: 18:17:27
(UTC+00:00)

deb Explorer IX - Visible Passes

Search period start: 18 October 2019 00:00
Search period end: 28 October 2019 00:00
Orbit: 544 x 1107 km, 38.8° (Epoch: 17 October)

Date Brightness Start Highest point End Pass type
(mag) Time Alt. Az. Time Alt. Az. Time Alt. Az.
20 Oct ? 11:56:39 10° NNW 11:57:05 12° NNW 11:57:05 12° NNW visible
21 Oct ? 11:34:35 10° NNW 11:37:06 22° NNW 11:37:06 22° NNW visible
22 Oct ? 11:12:33 10° NNW 11:17:19 37° N 11:17:19 37° N visible
23 Oct ? 10:50:32 10° NNW 10:57:27 48° NE 10:57:46 48° NE visible
23 Oct ? 12:38:16 10° WNW 12:39:14 14° WNW 12:39:14 14° WNW visible
24 Oct ? 10:28:31 10° NNW 10:35:24 49° NE 10:38:28 32° E visible
24 Oct ? 12:16:16 10° WNW 12:19:57 27° W 12:19:57 27° W visible
25 Oct ? 10:06:33 10° NNW 10:13:22 51° NE 10:19:24 15° ESE visible
25 Oct ? 11:54:18 10° WNW 12:00:53 36° SW 12:00:54 36° SW visible
26 Oct ? 09:44:35 10° NNW 09:51:19 52° NE 09:58:26 10° ESE visible
26 Oct ? 11:32:21 10° WNW 11:38:51 35° SW 11:42:03 25° S visible
26 Oct ? 20:45:15 10° S 20:47:35 14° SE 20:49:47 10° ESE visible
27 Oct ? 11:10:25 10° WNW 11:16:48 34° SW 11:23:18 10° SSE visible
27 Oct ? 20:23:08 10° S 20:25:47 15° SE 20:28:17 10° ESE visible
